Content
SEND FEEDBACK

Daily
Averages
Monthly
Summary
United States of America

AGAT, GUAM


Home > North America > United States > Guam
Elevation: 110 meters     Latitude: 13 33N     Longitude: 144 50E

WEATHER
 
SELECT A DAY
Number of Records: 215,809;   Date Range: 1/1/95 - 12/27/14
 
SHARE

PRINT THIS DATA

[ ← Previous Day ]
WEATHER ALMANAC - 6 MARCH, 2014
[ Next Day → ]
[ °F ]   °C
Weather ElementAverageHighLow
Temperature26.1 °C29.4 °C (11:54 am)22.8 °C (3:54 am)
Dewpoint20.6 °C22 °C (8:36 am)18.9 °C (5:54 am)
Humidity72.3 %87 % (2:54 am)55 % (3:54 pm)
Barometer1009.1 hPa1010.8 hPa (8:44 am)1007.1 hPa (2:54 pm)
Wind Speed17.5 km/h29.6 km/h (12:54 pm)
Wind Gust38.9 km/h (10:54 am)
Weather ElementAverage
Visibility16.1 km
Wind DirectionESE (128.8 °)

Weather ElementTotal
Precipitation---
Cooling Degree Days7.8 (Base 18.3)
Growing Degree Days16.1 (Base 10)
Averaged from 26 records on 6 March, 2014
WEATHER CONDITIONS BREAKOUT
WIND DIRECTION BREAKOUT
WEATHER BY HOUR - 6 MARCH, 2014
[ °F ]   °C
Local TimeTemperatureDewpointHumidityBarometerVisibilityWind DirectionWind SpeedGust SpeedPrecipitationEventsConditions
1:54 AM24.4 °C21.7 °C85 %1008.1 hPa16.1 kmNorth (350°)20.4 km/h31.5 km/h0 mmRainLight Rain
2:54 AM23.9 °C21.7 °C87 %1007.8 hPa16.1 kmNorth (10°)14.8 km/h0 mmClear
3:54 AM22.8 °C20.6 °C87 %1007.8 hPa16.1 kmNNE (30°)9.3 km/hClear
4:54 AM23.3 °C20.6 °C85 %1007.8 hPa16.1 kmNNE (20°)9.3 km/hPartly Cloudy
5:54 AM23.9 °C18.9 °C73 %1008.1 hPa16.1 kmNorth (10°)16.7 km/h35.2 km/hScattered Clouds
6:54 AM24.4 °C21.1 °C82 %1009.1 hPa16.1 kmNorth (10°)13 km/hPartly Cloudy
7:54 AM25.6 °C21.7 °C79 %1009.8 hPa16.1 kmNNE (20°)16.7 km/h0 mmMostly Cloudy
8:36 AM27 °C22 °C74 %1010.5 hPa16.1 kmNorth (10°)24.1 km/h31.5 km/h0 mmRainLight Rain
8:44 AM27 °C21 °C70 %1010.8 hPa16.1 kmNorth (360°)20.4 km/h0 mmRainLight Rain
8:54 AM27.2 °C21.1 °C69 %1010.2 hPa16.1 kmNorth (10°)20.4 km/h37 km/h0 mmMostly Cloudy
9:54 AM28.3 °C20.6 °C63 %1010.2 hPa16.1 kmNorth (360°)22.2 km/hPartly Cloudy
10:54 AM28.9 °C20.6 °C61 %1009.8 hPa16.1 kmNorth (360°)25.9 km/h38.9 km/hPartly Cloudy
11:54 AM29.4 °C21.1 °C61 %1008.8 hPa16.1 kmNorth (360°)24.1 km/h37 km/hClear
12:54 PM29.4 °C21.1 °C61 %1008.5 hPa16.1 kmNorth (350°)29.6 km/hPartly Cloudy
1:54 PM29.4 °C21.1 °C61 %1007.8 hPa16.1 kmNorth (360°)29.6 km/hMostly Cloudy
2:54 PM29.4 °C20 °C57 %1007.1 hPa16.1 kmNorth (350°)27.8 km/hMostly Cloudy
3:54 PM28.9 °C18.9 °C55 %1007.1 hPa16.1 kmNNE (20°)18.5 km/h33.3 km/hMostly Cloudy
4:54 PM27.2 °C20 °C65 %1007.8 hPa16.1 kmNNE (20°)22.2 km/hClear
5:54 PM26.7 °C19.4 °C64 %1008.5 hPa16.1 kmNNE (30°)20.4 km/hClear
6:54 PM25.6 °C20 °C71 %1008.8 hPa16.1 kmNorth (10°)13 km/hClear
7:54 PM25.6 °C20.6 °C74 %1009.8 hPa16.1 kmENE (60°)5.6 km/hPartly Cloudy
8:44 PM25 °C21 °C78 %1010.8 hPa16.1 kmENE (60°)11.1 km/hScattered Clouds
8:54 PM25 °C20.6 °C76 %1010.2 hPa16.1 kmNE (50°)11.1 km/hPartly Cloudy
9:54 PM23.9 °C20 °C79 %1010.5 hPa16.1 kmNE (40°)7.4 km/hClear
10:54 PM23.3 °C20 °C82 %1010.5 hPa16.1 kmNE (40°)11.1 km/hClear
11:54 PM23.3 °C20 °C82 %1010.2 hPa16.1 kmNE (50°)11.1 km/hClear
Hourly data recorded from PGUM, located 0 kilometers away from Agat, Guam







STORIES FROM OUR PARTNERS